Findlay, OH

10:47 PM EST on December 12, 2017 (GMT -0500)
Findlay

Weather History for KFDY - March, 2013

Change the Weather History Date:

Monday, March 25, 2013

  Actual Average Record
Temperature  
Mean Temperature 32 °F -  
Max Temperature 33 °F 46 °F 75 °F (1986)
Min Temperature 30 °F 28 °F 1 °F (1974)
Degree Days  
Heating Degree Days 34    
Moisture  
Dew Point 29 °F    
Average Humidity 88    
Maximum Humidity 93    
Minimum Humidity 75    
Precipitation  
Precipitation 0.09 in - - ()
Sea Level Pressure  
Sea Level Pressure 29.64 in    
Wind  
Wind Speed 16 mph (North)    
Max Wind Speed 21 mph    
Max Gust Speed 29 mph    
Visibility 2 miles    
Events Fog , Snow    
Averages and records for this station are not official NWS values.
T = Trace of Precipitation, MM = Missing Value Source: NWS Daily Summary

Daily Weather History Graph

Daily Weather History Graph

Search for Another Location

Airport or City:

Trip Planner

Search our weather history database for the weather conditions in past years. The results will help you decide how hot, cold, wet, or windy it might be!

Date:

Astronomy

Mar. 25, 2013 Rise Set
Actual Time 7:29 AM EDT 7:52 PM EDT
Civil Twilight 7:01 AM EDT 8:20 PM EDT
Nautical Twilight 6:29 AM EDT 8:52 PM EDT
Astronomical Twilight 5:56 AM EDT 9:25 PM EDT
Moon 6:22 PM EDT (3/25) 6:12 AM EDT (3/25)
Length of Visible Light 13h 18m
Length of Day
12h 23m
Waxing Gibbous, 96% of the Moon is Illuminated
Mar 25
Waxing Gibbous
Mar 27
Full
Apr 3
Last Quarter
Apr 10
New
Apr 18
First Quarter

Hourly Weather History & Observations

Time (EDT) Temp. Windchill Dew Point Humidity Pressure Visibility Wind Dir Wind Speed Gust Speed Precip Events Conditions
12:04 AM 32.0 °F 19.8 °F 24.8 °F 75% 29.52 in 3.0 mi NE 20.7 mph 25.3 mph 0.00 in Snow Light Snow
12:11 AM 32.0 °F 20.5 °F 24.8 °F 75% 29.51 in 1.8 mi NE 18.4 mph - 0.00 in Snow Light Snow
12:21 AM 30.2 °F 17.8 °F 26.6 °F 86% 29.50 in 0.8 mi NE 19.6 mph 28.8 mph 0.00 in Snow Light Snow
12:34 AM 30.2 °F 18.1 °F 26.6 °F 86% 29.49 in 0.5 mi NE 18.4 mph 27.6 mph 0.00 in Fog , Snow Snow
12:53 AM 30.0 °F 17.5 °F 28.0 °F 92% 29.49 in 0.5 mi NE 19.6 mph 26.5 mph 0.01 in Fog , Snow Snow
1:53 AM 30.0 °F 19.5 °F 28.0 °F 92% 29.49 in 0.8 mi NE 13.8 mph - 0.01 in Snow Light Snow
2:53 AM 30.0 °F 18.3 °F 28.0 °F 92% 29.47 in 0.5 mi NNE 17.3 mph 24.2 mph 0.03 in Fog , Snow Snow
3:53 AM 30.9 °F 19.8 °F 28.9 °F 92% 29.46 in 0.8 mi NNE 16.1 mph 24.2 mph 0.00 in Snow Light Snow
4:11 AM 30.2 °F 18.5 °F 28.4 °F 93% 29.44 in 1.0 mi NNE 17.3 mph - 0.01 in Snow Light Snow
4:53 AM 30.9 °F 19.4 °F 28.0 °F 89% 29.44 in 1.8 mi NE 17.3 mph 27.6 mph 0.01 in Snow Light Snow
5:02 AM 30.2 °F 18.9 °F 28.4 °F 93% 29.43 in 2.0 mi NNE 16.1 mph 23.0 mph 0.00 in Snow Light Snow
5:22 AM 30.2 °F 18.1 °F 28.4 °F 93% 29.43 in 3.0 mi NNE 18.4 mph 25.3 mph 0.00 in Snow Light Snow
5:34 AM 30.2 °F 18.5 °F 28.4 °F 93% 29.43 in 2.5 mi NNE 17.3 mph 26.5 mph 0.00 in Snow Light Snow
5:51 AM 30.2 °F 18.9 °F 28.4 °F 93% 29.43 in 3.0 mi NNE 16.1 mph - 0.00 in Snow Light Snow
5:53 AM 30.9 °F 19.1 °F 28.0 °F 89% 29.44 in 3.0 mi NNE 18.4 mph - 0.00 in Snow Light Snow
6:53 AM 30.9 °F 19.8 °F 28.9 °F 92% 29.44 in 1.5 mi NNE 16.1 mph - 0.00 in Snow Light Snow
7:11 AM 30.2 °F 18.9 °F 28.4 °F 93% 29.44 in 2.0 mi NE 16.1 mph - 0.00 in Snow Light Snow
7:35 AM 30.2 °F 18.9 °F 28.4 °F 93% 29.44 in 1.8 mi NNE 16.1 mph 25.3 mph 0.00 in Snow Light Snow
7:53 AM 30.9 °F 19.4 °F 28.9 °F 92% 29.47 in 1.0 mi NE 17.3 mph 24.2 mph 0.00 in Snow Light Snow
8:00 AM 30.2 °F 18.5 °F 28.4 °F 93% 29.45 in 0.8 mi NNE 17.3 mph 24.2 mph 0.00 in Snow Light Snow
8:53 AM 30.9 °F 19.8 °F 28.9 °F 92% 29.49 in 0.8 mi NNE 16.1 mph 23.0 mph 0.00 in Snow Light Snow
9:24 AM 32.0 °F 21.2 °F 28.4 °F 87% 29.48 in 1.0 mi NNE 16.1 mph 24.2 mph 0.00 in Snow Light Snow
9:53 AM 32.0 °F 20.5 °F 28.9 °F 88% 29.50 in 1.5 mi NNE 18.4 mph - 0.00 in Snow Light Snow
10:10 AM 32.0 °F 19.8 °F 28.4 °F 87% 29.50 in 0.8 mi NNE 20.7 mph 25.3 mph 0.00 in Snow Light Snow
10:53 AM 32.0 °F 20.1 °F 30.0 °F 92% 29.53 in 1.0 mi NNE 19.6 mph 25.3 mph 0.00 in Snow Light Snow
11:53 AM 33.1 °F 23.9 °F 30.0 °F 89% 29.56 in 1.0 mi North 12.7 mph - 0.00 in Snow Light Snow
12:06 PM 32.0 °F 20.5 °F 30.2 °F 93% 29.55 in 0.8 mi North 18.4 mph 25.3 mph 0.00 in Snow Light Snow
12:22 PM 33.8 °F 23.2 °F 30.2 °F 87% 29.56 in 1.2 mi North 17.3 mph - 0.00 in Snow Light Snow
12:53 PM 33.1 °F 21.2 °F 28.9 °F 85% 29.59 in 1.2 mi North 20.7 mph - 0.00 in Snow Light Snow
1:22 PM 33.8 °F 23.2 °F 28.4 °F 81% 29.59 in 1.5 mi North 17.3 mph 28.8 mph 0.00 in Snow Light Snow
1:53 PM 33.1 °F 21.5 °F 28.0 °F 82% 29.62 in 1.8 mi North 19.6 mph 25.3 mph 0.00 in Snow Light Snow
2:01 PM 33.8 °F 23.5 °F 28.4 °F 81% 29.61 in 2.0 mi North 16.1 mph 28.8 mph 0.00 in Snow Light Snow
2:08 PM 33.8 °F 22.2 °F 28.4 °F 81% 29.61 in 1.2 mi North 20.7 mph - 0.00 in Snow Light Snow
2:21 PM 33.8 °F 23.5 °F 28.4 °F 81% 29.61 in 0.8 mi North 16.1 mph - 0.00 in Snow Light Snow
2:28 PM 33.8 °F 23.9 °F 28.4 °F 81% 29.61 in 1.0 mi North 15.0 mph - 0.00 in Snow Light Snow
2:53 PM 33.1 °F 21.9 °F 28.9 °F 85% 29.64 in 3.0 mi North 18.4 mph - 0.00 in Snow Light Snow
3:16 PM 33.8 °F 23.5 °F 28.4 °F 81% 29.64 in 2.5 mi North 16.1 mph - 0.00 in Snow Light Snow
3:24 PM 33.8 °F 23.5 °F 28.4 °F 81% 29.64 in 4.0 mi North 16.1 mph - 0.00 in Snow Light Snow
3:53 PM 33.1 °F 23.4 °F 28.9 °F 85% 29.67 in 2.5 mi North 13.8 mph 27.6 mph 0.00 in Snow Light Snow
4:04 PM 33.8 °F 24.3 °F 28.4 °F 81% 29.66 in 1.2 mi NNW 13.8 mph 20.7 mph 0.00 in Snow Light Snow
4:09 PM 33.8 °F 24.8 °F 28.4 °F 81% 29.66 in 0.8 mi North 12.7 mph - 0.00 in Snow Light Snow
4:53 PM 33.1 °F 24.4 °F 30.0 °F 89% 29.70 in 0.8 mi North 11.5 mph 19.6 mph 0.01 in Snow Light Snow
5:43 PM 33.8 °F 25.8 °F 30.2 °F 87% 29.71 in 1.2 mi NNW 10.4 mph - 0.01 in Snow Light Snow
5:53 PM 33.1 °F 24.4 °F 30.0 °F 89% 29.73 in 1.5 mi NNW 11.5 mph - 0.01 in Snow Light Snow
6:19 PM 33.8 °F 25.8 °F 30.2 °F 87% 29.73 in 2.5 mi NNW 10.4 mph - 0.00 in Snow Light Snow
6:29 PM 33.8 °F - 30.2 °F 87% 29.73 in 3.0 mi North - - 0.00 in Snow Light Snow
6:44 PM 33.8 °F 24.8 °F 30.2 °F 87% 29.74 in 2.0 mi NNW 12.7 mph 20.7 mph 0.00 in Snow Light Snow
6:53 PM 33.1 °F 25.5 °F 30.9 °F 92% 29.76 in 2.5 mi NW 9.2 mph - 0.00 in Snow Light Snow
7:01 PM 33.8 °F 24.3 °F 30.2 °F 87% 29.75 in 3.0 mi NW 13.8 mph 18.4 mph 0.00 in Snow Light Snow
7:10 PM 33.8 °F 27.0 °F 30.2 °F 87% 29.76 in 2.0 mi NNW 8.1 mph - 0.00 in Snow Light Snow
7:17 PM 33.8 °F 26.4 °F 30.2 °F 87% 29.76 in 2.5 mi NNW 9.2 mph - 0.00 in Snow Light Snow
7:25 PM 33.8 °F 26.4 °F 30.2 °F 87% 29.77 in 3.0 mi NW 9.2 mph - 0.00 in Snow Light Snow
7:53 PM 33.1 °F 26.1 °F 30.9 °F 92% 29.80 in 3.0 mi NW 8.1 mph - 0.00 in Snow Light Snow
8:28 PM 33.8 °F 26.4 °F 30.2 °F 87% 29.81 in 2.5 mi NW 9.2 mph - 0.00 in Snow Light Snow
8:45 PM 33.8 °F 26.4 °F 30.2 °F 87% 29.81 in 1.8 mi NW 9.2 mph - 0.00 in Snow Light Snow
8:53 PM 33.1 °F 26.9 °F 30.9 °F 92% 29.83 in 2.5 mi NW 6.9 mph - 0.01 in Snow Light Snow
8:58 PM 33.8 °F 27.0 °F 30.2 °F 87% 29.82 in 3.0 mi NW 8.1 mph - 0.00 in Snow Light Snow
9:05 PM 33.8 °F 26.4 °F 30.2 °F 87% 29.83 in 2.5 mi NW 9.2 mph - 0.00 in Snow Light Snow
9:14 PM 33.8 °F 27.0 °F 30.2 °F 87% 29.83 in 1.8 mi NW 8.1 mph - 0.00 in Snow Light Snow
9:25 PM 33.8 °F 27.0 °F 30.2 °F 87% 29.84 in 2.0 mi NW 8.1 mph - 0.00 in Snow Light Snow
9:38 PM 33.8 °F 26.4 °F 30.2 °F 87% 29.84 in 4.0 mi NW 9.2 mph - 0.00 in Snow Light Snow
9:53 PM 33.1 °F 26.9 °F 30.9 °F 92% 29.86 in 3.0 mi NW 6.9 mph - 0.00 in Snow Light Snow
10:06 PM 33.8 °F 27.0 °F 30.2 °F 87% 29.86 in 2.5 mi NW 8.1 mph - 0.00 in Snow Light Snow
10:34 PM 33.8 °F 26.4 °F 30.2 °F 87% 29.87 in 3.0 mi NW 9.2 mph - 0.00 in Snow Light Snow
10:39 PM 33.8 °F 27.0 °F 30.2 °F 87% 29.87 in 2.5 mi NW 8.1 mph - 0.00 in Snow Light Snow
10:46 PM 33.8 °F 27.7 °F 30.2 °F 87% 29.87 in 4.0 mi NNW 6.9 mph - 0.00 in Snow Light Snow
10:53 PM 33.1 °F 26.9 °F 30.9 °F 92% 29.88 in 4.0 mi NW 6.9 mph - 0.00 in Snow Light Snow
11:15 PM 33.8 °F 27.0 °F 30.2 °F 87% 29.88 in 4.0 mi NNW 8.1 mph - 0.00 in Snow Light Snow
11:53 PM 33.1 °F 26.1 °F 30.9 °F 92% 29.90 in 8.0 mi NNW 8.1 mph - 0.00 in Snow Light Snow